星链-30446 (STARLINK-30446 )

导读

STARLINK-30446是美国SpaceX星链(Starlink)卫星互联网项目的一颗低轨卫星,于2023年9月16日发射入轨,隶属于星链v2 mini批次。它运行在近地轨道,依托星链星座的激光通信组网,为全球提供高速低延迟宽带互联网服务,重点填补偏远地区网络覆盖空白。作为星链大规模组网的重要组成部分,该卫星进一步增强了星座的覆盖密度与服务稳定性,推动全球卫星互联网络的构建。

Basic Information
目录编号:
57872
目录名称:
STARLINK-30446
国际标识:
2023-144J
轨道中心:
EARTH
卫星名称:
星链-30446
卫星全名:
星链-30446 (STARLINK-30446 )
卫星状态:
在轨 (已飞行1091 天)
发射日期:
2023-09-16 UTC
国别 :
美国 (US)
星等 :
--
This satellite is enrolled in the Space Conjunction Data Service (SCDS) and the current flight risk assessment level is: High Risk
Orbit Information
数据来源 国际轨道数据 AOE轨道数据
星历时间 2026-09-11T11:05:04+0800
12小时前
查看轨道信息
2026-09-06T08:00:00+0800
5天前
查看轨道信息
半长轴 6861.203km 6861.18km
偏心率 0.0002039 0.0002125
轨道倾角 43.007° 43.006°
近地点辐角 279.720° 257.836°
升交点赤经 303.819° 332.785°
平近点角 80.342° 305.968°
近地点 481.667km 481.584km
远地点 484.465km 484.502km
周期 94.267分钟 94.267分钟
每日圈数 15.275746 15.275821
Detailed Information
固有亮度:
5
最大亮度:
0.3
卫星平台:
Starlink v2.0 mini
覆盖范围:
全球
运营商:
太空探索技术公司
运营商所在国:
美国
制造商(研发单位):
太空探索技术公司
制造商所在国:
美国
使用方式:
暂无
Satellite Introduction
星链(Starlink)计划是由太空探索技术公司(SpaceX)提出的一个巨型低轨卫星互联网星座项目,计划在2019年至2024年间在太空搭建由约1.2万颗卫星组成的“星链”网络,其中1584颗将部署在地球上空550千米处的近地轨道,并从2020年开始工作。该卫星仍在工作。
2D Orbit Map
3D Orbit Map
Orbit Altitude Analysis Chart
Orbit Inclination Analysis Chart
Orbit Comprehensive Analysis Chart
View Comprehensive Chart
Miss Distance Evolution Trend with All Objects
Collision Probability Evolution Trend with All Objects